Preview of NWS' New Version of Forecast
This preview is not operational and should not be used for support decisions.

Regional Weather Roundup (RWR)

Issued by National Weather Service (NWS)

                            
000
ASUS43 KDTX 181501
RWRMI 
MICHIGAN HOURLY REGIONAL WEATHER ROUNDUP
NATIONAL WEATHER SERVICE DETROIT/PONTIAC MI
1100 AM EDT TUE JUN 18 2019

NOTE: "FAIR" INDICATES FEW OR NO CLOUDS BELOW 12,000 FEET WITH NO
SIGNIFICANT WEATHER AND/OR OBSTRUCTION TO VISIBILITY.

MIZ047>049-052>055-059>063-066>070-074>076-081>083-181600-
SOUTHEAST LOWER MICHIGAN
  
CITY           SKY/WX    TMP DP  RH WIND       PRES   REMARKS
ADRIAN         FAIR      70  58  65 E6        29.98S                  
ANN ARBOR      CLOUDY    71  62  73 SE3       29.97S                  
BAD AXE        FAIR      69  50  50 CALM      29.98S                  
CARO           CLOUDY    72  58  61 NW3       29.97S                  
DETROIT CITY   CLOUDY    69  56  62 VRB3      29.98S                  
DETROIT        CLOUDY    69  55  60 SE5       29.98S                  
FLINT          FAIR      72  57  59 CALM      29.97F                  
GROSSE ILE     PTSUNNY   70  59  68 CALM      29.97S                  
HOWELL         CLOUDY    70  58  67 CALM      29.98S                  

CITY           SKY/WX    TMP DP  RH WIND       PRES   REMARKS
JACKSON        PTSUNNY   73  63  70 MISG      29.98S                  
LAMBERTVILLE   PTSUNNY   71  61  70 E6        29.97S                  
LANSING        CLOUDY    71  61  70 CALM      29.97F                  
LAPEER         CLOUDY    69  58  67 E6        29.98F                  
MASON          PTSUNNY   72  63  74 N6        29.98S                  
MONROE         PTSUNNY   71  63  76 E5        29.97S                  
MT. CLEMENS    CLOUDY    66  58  76 CALM      29.98R                  
PONTIAC        CLOUDY    68  57  68 CALM      29.97R                  
PORT HOPE        N/A     57  52  83 E6        29.97S                  
PORT HURON     CLOUDY    68  52  56 E3        29.98F                  
TRI CITIES     FAIR      71  61  70 NE3       29.97F                  
MIDLAND        FAIR      72  57  60 CALM      29.96F                  
TROY           CLOUDY    69  53  57 CALM      30.00S                  
$$
MIZ043>046-050>051-056>058-064>065-071>073-077>080-181600-
SOUTHWEST LOWER MICHIGAN
  
CITY           SKY/WX    TMP DP  RH WIND       PRES   REMARKS
BATTLE CREEK   PTSUNNY   74  63  68 NE6       29.97S                  
BENTON HARBOR  FAIR      69  61  75 MISG      29.96S                  
BIG RAPIDS     PTSUNNY   69  58  65 CALM      29.97F                  
HOLLAND        PTSUNNY   70  61  73 CALM      29.97S                  
GRAND RAPIDS   PTSUNNY   69  61  75 CALM      29.97S                  
IONIA          CLOUDY    70  57  64 CALM      29.97S                  
KALAMAZOO      CLOUDY    72  61  68 N3        29.96F                  
LUDINGTON      PTSUNNY   63  56  78 CALM      29.96F                  
MARSHALL       FAIR      70  68  93 CALM      29.97S                  
MOUNT PLEASANT FAIR      71  58  63 CALM      29.96S                  
MUSKEGON       PTSUNNY   72  57  59 N6        29.97S                  
SOUTH HAVEN    FAIR      71  62  74 NE3       29.96F                  
$$
MIZ016>042-181600-
NORTHERN LOWER MICHIGAN
  
CITY           SKY/WX    TMP DP  RH WIND       PRES   REMARKS
ALPENA         FAIR      70  51  51 E3        29.96F                  
BEAVER ISLAND  FAIR      64  47  54 CALM      29.95F                  
BELLAIRE       CLOUDY    65  50  57 S3        29.95F                  
CADILLAC       CLOUDY    69  60  73 W3        29.97S                  
CHARLEVOIX     PTSUNNY   60  51  71 NW3       29.99S                  
FRANKFORT      CLOUDY    68  53  58 S6        29.95F                  
GAYLORD        PTSUNNY   66  50  56 W6        29.96F                  
GRAYLING       FAIR      71  54  55 W6        29.95F                  
HOUGHTON LAKE  FAIR      68  52  56 SW6       29.97F                  
MANISTEE       FAIR      67  56  67 CALM      29.96F                  
OSCODA         FAIR      66  48  52 E3        29.97S                  
PELLSTON       FAIR      66  51  58 NW5       29.95F                  
ROGERS CITY    FAIR      69  57  67 SE6       29.96F                  
TRAVERSE CITY  PTSUNNY   69  53  56 S5        29.94F                  
$$
MIZ007>008-015-181600-
EASTERN UPPER MICHIGAN
  
CITY           SKY/WX    TMP DP  RH WIND       PRES   REMARKS
KINROSS        FAIR      67  52  58 VRB5      29.95F                  
MACKINAC ISLAN PTSUNNY   60  52  75 CALM      29.95F                  
NEWBERRY       FAIR      68  49  49 CALM      29.94S                  
S. S. MARIE    FAIR      67  54  63 CALM      29.94F                  
MUNISING         N/A     60  52  74 NE3       29.91S                  
$$
MIZ004>006-011>014-085-181600-
CENTRAL UPPER MICHIGAN
  
CITY           SKY/WX    TMP DP  RH WIND       PRES   REMARKS
MANISTIQUE     FAIR      63  55  76 S6        29.94S                  
ESCANABA       PTSUNNY   62  56  80 S8        29.93F                  
MENOMINEE      CLOUDY    65  60  84 SE6       29.94S                  
SAWYER-GWINN   PTSUNNY   66  59  77 SW6       29.92S                  
$$
MIZ001>003-009>011-084-181600-
WESTERN UPPER MICHIGAN
  
CITY           SKY/WX    TMP DP  RH WIND       PRES   REMARKS
IRON MOUNTAIN  CLOUDY    66  58  75 S5        29.92S                  
HOUGHTON       PTSUNNY   59  47  64 NW8       29.93R                  
COPPER HARBOR    N/A     49  45  86 E3        29.94R                  
IRONWOOD       CLOUDY    57  53  86 W6        29.97R                  
$$

ABBREVIATIONS USED IN REMARKS
   TC - TEMPERATURE IN CELSIUS
  WCI - WIND CHILL INDEX
   HX - HEAT INDEX
  VSB - VISIBILITY